GFSGBSN_850_temp_102.txt.gz
Temp
2 2 3 3 3 3 3 3 2 2 2 2 2 2 3 3 4 6 7 8 9 9 9 9 9 9 9 9 14 17 16 16 16 16 16 16 15 16 14 15 17 15 17 18 19 20 20
3 2 2 3 3 3 3 3 2 2 2 2 2 2 2 3 3 4 4 7 9 9 9 9 9 8 7 6 16 15 15 15 15 15 16 15 16 16 16 16 15 18 18 18 19 19 20
3 3 2 2 2 3 4 3 3 2 2 2 2 2 2 2 3 4 5 5 9 10 9 9 9 7 5 13 16 15 15 15 15 15 15 16 16 16 17 16 18 18 16 16 17 18 19
3 2 2 3 3 2 1 1 2 2 1 1 1 1 2 2 3 3 4 7 10 10 9 9 9 7 5 15 14 16 15 15 15 15 15 16 16 16 16 17 17 16 15 15 18 19 20
3 2 1 1 1 1 1 1 1 1 1 1 1 1 1 2 2 3 4 7 10 10 10 9 8 6 6 12 13 15 14 14 15 15 16 16 16 16 16 15 13 14 15 14 15 18 18
2 2 2 2 1 1 1 1 1 1 1 1 1 0 1 1 2 3 4 8 9 8 8 8 5 5 9 13 13 14 14 15 15 15 15 15 15 13 12 12 13 13 13 14 15 17 17
2 2 1 1 1 1 0 0 -0 1 0 1 0 1 1 1 1 3 4 7 6 7 6 6 7 8 11 12 12 13 14 14 14 15 12 14 11 11 12 13 15 15 14 14 16 17 17
1 1 2 1 1 0 0 -0 -0 0 0 0 0 1 1 1 1 3 4 4 3 3 3 5 6 7 8 9 8 14 13 12 13 12 12 12 11 13 14 14 14 14 14 14 15 16 17
1 1 1 1 1 1 1 1 1 1 1 1 1 1 1 1 1 3 3 3 3 3 4 5 7 7 9 10 9 12 12 12 11 11 12 12 14 15 14 13 14 14 14 14 14 16 17
1 1 1 0 1 1 1 0 1 1 1 1 1 1 1 1 1 2 3 2 3 3 2 5 7 9 9 10 9 12 12 12 11 12 11 12 14 14 14 14 14 13 15 15 16 15 14
1 1 0 1 1 -0 -0 0 0 -0 0 0 0 0 -1 -0 -1 1 2 2 3 4 2 9 10 13 12 11 13 14 14 11 11 12 12 12 13 13 14 14 15 14 15 15 15 15 15
0 1 0 0 -0 -1 -0 -0 -0 -1 -1 -0 -0 -0 -0 1 1 2 1 2 3 2 2 7 13 12 10 11 13 14 13 13 13 12 12 12 14 14 15 16 16 16 15 15 15 14 13
-2 -2 -2 -1 -1 -1 -2 -1 -1 -1 -1 -0 -0 -0 -1 -1 0 1 0 0 1 1 8 9 10 10 11 11 12 12 12 11 10 9 10 12 12 13 14 13 14 14 14 12 12 11 12
-3 -2 -2 -2 -2 -1 -1 -1 -1 -1 -1 -1 -1 -1 -1 -1 -0 -0 -0 0 1 5 5 8 8 9 10 12 12 11 11 10 11 11 10 9 10 12 14 13 13 13 13 10 12 10 12
-3 -3 -2 -2 -3 -2 -2 -2 -2 -1 -1 -1 -1 -1 -0 2 0 -1 -1 -0 1 5 6 6 8 9 8 6 7 10 9 11 11 12 10 10 11 14 14 15 15 14 14 14 13 13 11
-2 -3 -3 -3 -2 -2 -2 -2 -2 -1 -2 -2 -2 -2 1 1 0 -1 -0 1 3 5 5 6 5 8 6 6 8 9 6 8 7 8 8 12 11 14 14 14 14 14 15 14 13 12 12
-3 -3 -3 -3 -2 -2 -2 -2 -2 -2 -2 -2 -2 -2 1 1 -0 -1 -0 -0 3 5 5 5 4 5 7 7 8 8 6 8 7 7 8 9 11 12 14 12 13 13 14 14 14 12 13
-3 -3 -3 -3 -2 -2 -2 -2 -2 -2 -2 -2 -2 -2 -0 -0 -0 -1 1 0 4 5 4 4 6 6 7 7 7 7 6 5 6 6 5 8 8 10 13 12 12 13 14 14 11 12 12
-3 -3 -3 -3 -2 -2 -2 -2 -2 -2 -2 -3 -2 -2 0 -0 -2 0 1 3 4 3 4 5 5 6 7 7 6 7 6 7 7 6 4 6 7 8 12 12 10 12 12 14 13 12 11
-3 -3 -3 -3 -2 -2 -2 -2 -2 -2 -2 -3 -2 -2 -0 -0 -1 -1 1 1 3 4 3 5 6 6 6 6 7 6 7 8 8 8 5 6 7 8 8 9 9 10 11 11 11 9 11
-3 -3 -3 -3 -2 -2 -2 -2 -2 -2 -2 -3 -3 -3 -1 -5 -2 -0 1 1 2 3 3 4 4 5 5 5 5 5 6 7 8 8 8 6 7 8 9 11 11 10 11 10 9 9 10
-3 -3 -3 -3 -3 -2 -2 -2 -2 -2 -2 -3 -3 -2 -1 -1 0 -0 0 2 2 1 2 2 3 4 4 3 5 4 4 5 7 8 7 7 8 8 9 10 10 10 11 11 11 9 10
-4 -3 -3 -3 -3 -2 -2 -2 -2 -2 -3 -3 -2 -3 -2 -1 -1 -2 -1 2 2 2 2 4 4 3 3 4 4 4 4 5 4 7 6 6 6 6 7 8 9 8 11 11 12 12 11
-4 -4 -3 -3 -3 -3 -2 -2 -2 -2 -3 -3 -2 -2 -2 -3 -1 -0 1 1 2 2 2 3 3 3 5 5 6 6 6 5 6 6 7 6 5 4 5 7 7 10 12 12 11 11 10
-4 -4 -4 -3 -3 -3 -3 -2 -2 -2 -2 -3 -3 -3 -3 -4 -1 -1 1 1 1 2 2 3 4 4 5 5 2 3 3 4 5 5 5 5 5 3 4 4 7 11 10 10 11 9 10
-4 -4 -4 -4 -3 -3 -3 -2 -2 -2 -2 -3 -2 -3 -3 -2 -2 -0 -0 0 -0 -1 0 2 3 4 4 1 0 2 2 4 5 6 6 5 5 3 3 5 5 10 10 11 11 8 10
-4 -4 -4 -4 -3 -3 -3 -3 -2 -3 -2 -3 -3 -3 -3 -2 -1 -1 -1 -0 1 1 -1 0 1 2 3 -0 1 1 2 6 4 4 5 3 2 4 3 3 6 9 10 11 9 8 11
-4 -4 -4 -4 -3 -3 -3 -3 -3 -3 -3 -3 -3 -3 -3 -3 -2 -1 -0 -1 -1 -0 -0 1 0 1 0 1 2 2 1 5 4 4 4 4 2 1 2 3 5 10 10 10 9 10 11
-4 -4 -4 -4 -3 -3 -3 -3 -3 -3 -3 -3 -3 -3 -3 -3 -2 -1 -2 -1 -1 -1 -0 1 1 0 0 1 1 1 2 3 4 4 2 4 5 4 5 5 8 9 9 10 11 10 10

GFSGBSN_850_temp_105.txt.gz
Temp
4 3 3 3 4 5 5 4 3 4 3 4 4 4 5 6 5 6 8 9 10 10 9 9 9 9 9 9 13 16 15 15 15 16 16 15 15 15 13 14 14 14 15 17 18 18 18
2 2 3 3 4 5 5 4 3 3 2 2 3 3 3 3 5 5 6 8 10 10 10 10 9 8 7 5 15 14 14 14 14 14 14 14 15 15 15 14 14 16 16 16 17 17 17
2 2 1 1 2 2 2 3 2 2 2 2 3 2 2 3 4 5 5 8 9 9 10 9 8 8 5 12 15 14 14 15 15 14 14 14 15 15 15 15 17 16 14 14 14 16 16
2 1 1 1 1 2 2 2 1 2 2 2 2 2 2 3 4 5 6 8 9 9 10 10 9 7 5 14 13 14 14 15 15 15 14 15 15 15 15 16 15 15 15 14 16 15 17
2 2 2 2 2 1 2 2 2 1 2 1 1 1 1 2 2 3 5 7 8 8 8 9 8 7 6 12 13 13 13 14 14 14 14 15 14 15 15 13 13 12 13 13 15 16 17
2 1 1 1 1 1 1 1 1 1 1 1 1 1 1 1 2 2 4 6 7 6 6 7 5 5 9 12 11 13 12 13 13 14 14 14 14 11 10 11 12 12 12 13 14 16 16
0 2 2 1 2 2 2 2 2 1 1 1 1 1 1 1 2 3 4 5 5 6 6 4 5 5 7 9 9 11 12 12 13 13 11 13 10 10 12 11 14 14 13 12 15 16 16
1 2 2 2 2 3 3 2 2 1 2 2 2 2 2 2 2 3 2 2 1 0 1 3 5 5 8 8 6 12 12 10 12 10 11 11 10 12 11 11 12 12 13 13 13 15 15
1 1 2 2 2 3 2 2 2 2 2 1 1 1 1 2 2 3 2 2 2 2 3 4 6 6 7 9 6 9 10 11 10 10 10 10 12 13 12 12 12 12 12 12 13 14 14
1 1 1 2 2 3 2 2 2 2 1 1 1 1 1 1 2 2 2 1 2 3 1 4 5 8 8 8 7 10 11 11 9 10 10 10 13 13 12 12 12 11 12 13 13 13 12
1 2 2 2 2 2 2 2 2 1 0 0 0 1 1 -0 -1 1 0 1 2 3 1 8 8 10 10 8 11 12 11 10 10 10 10 11 11 11 12 12 12 12 13 12 13 12 12
1 1 2 2 2 1 1 1 1 0 -0 -0 -0 -0 -0 -1 -1 -0 -1 1 2 1 2 5 8 8 9 9 10 12 10 11 11 9 10 12 13 12 12 13 13 14 13 13 13 11 10
-1 -1 -1 0 0 0 0 -0 -1 -1 -1 -1 -0 -0 -0 -1 0 -1 -1 -0 -0 0 6 6 6 7 7 7 9 10 10 9 8 8 8 11 11 12 13 12 13 13 11 10 10 9 11
-2 -2 -3 -2 -2 -2 -1 -1 -1 -1 -1 -1 -1 0 1 0 0 -1 -1 -1 -2 3 4 5 6 6 7 7 6 6 9 9 10 10 8 8 9 11 12 12 11 11 11 9 11 10 11
-2 -2 -3 -3 -2 -3 -2 -1 -1 -1 -1 -1 -1 0 1 -0 0 -0 -2 -4 0 3 1 1 5 6 5 6 6 5 6 5 6 7 9 8 9 12 12 13 13 13 10 13 12 11 10
-3 -2 -3 -3 -3 -2 -2 -1 -1 -1 -2 -2 -2 -1 0 0 0 -1 -1 1 1 3 3 4 3 2 2 4 4 5 6 5 7 6 6 9 9 12 13 12 12 13 13 12 11 12 12
-3 -3 -3 -3 -3 -2 -2 -2 -2 -2 -2 -2 -2 -2 -1 0 -0 -1 -3 -0 1 3 3 3 3 3 3 4 3 3 4 4 6 6 6 6 8 10 13 12 11 11 12 12 13 10 12
-3 -3 -3 -3 -2 -2 -2 -2 -2 -2 -2 -2 -2 -7 -1 -1 -2 -1 -1 2 1 3 3 3 3 4 2 5 5 3 4 5 5 6 5 4 6 7 11 11 11 11 12 13 11 11 10
-3 -3 -3 -3 -2 -2 -2 -2 -2 -2 -2 -2 -3 -2 -1 -1 -2 -3 0 0 3 2 3 3 4 5 3 5 5 6 6 8 7 6 5 5 5 6 9 10 10 10 10 12 11 11 11
-3 -3 -3 -3 -3 -2 -2 -2 -2 -2 -2 -3 -3 -3 -1 -1 -1 -2 -0 1 1 3 3 3 4 5 4 5 6 5 6 8 7 5 5 6 5 5 5 6 9 9 10 10 10 9 9
-3 -3 -3 -3 -3 -3 -2 -2 -2 -2 -2 -3 -3 -2 -3 -6 -2 -1 0 0 1 1 2 3 3 3 3 3 4 4 5 6 7 6 6 4 4 4 6 9 9 8 9 10 9 8 9
-3 -3 -3 -3 -3 -3 -3 -2 -2 -2 -2 -3 -3 -2 -2 -2 -1 -1 -1 -0 1 1 1 2 1 3 3 3 4 3 3 4 5 5 7 6 4 4 5 8 9 9 8 10 10 9 9
-3 -3 -3 -3 -3 -3 -3 -2 -2 -2 -3 -3 -3 -2 -3 -2 -2 -3 -1 1 1 1 2 3 3 2 2 3 4 4 4 4 4 4 5 6 5 4 5 7 7 8 9 10 9 10 10
-3 -3 -4 -3 -3 -3 -3 -2 -2 -2 -3 -3 -3 -3 -3 -3 -2 -1 -0 -0 0 1 1 2 3 2 4 3 4 5 3 3 2 3 4 6 5 5 5 6 6 9 10 10 9 10 10
-3 -3 -4 -3 -3 -3 -3 -2 -2 -2 -3 -3 -3 -3 -3 -5 -2 -1 -1 -0 0 1 1 1 2 2 3 3 2 3 3 4 4 4 4 5 4 4 5 6 7 10 9 9 9 9 9
-3 -3 -4 -4 -4 -3 -3 -3 -3 -2 -3 -3 -3 -3 -3 -3 -2 -1 -1 -1 -1 -2 -1 1 2 2 2 -0 -1 1 1 4 4 4 5 4 4 4 3 4 3 8 10 10 9 7 9
-3 -3 -4 -4 -4 -3 -3 -3 -3 -2 -3 -3 -3 -3 -4 -4 -2 -1 -2 -1 -0 -1 -2 -1 0 1 2 -1 0 1 2 4 2 3 4 2 1 3 2 2 5 7 9 10 8 8 9
-3 -4 -4 -4 -4 -4 -3 -3 -3 -3 -3 -3 -3 -3 -3 -4 -2 -2 -1 -1 -1 -1 -2 -0 -1 -1 -1 -0 2 2 0 3 3 3 3 3 1 -1 1 2 4 9 9 9 8 9 10
-4 -4 -4 -4 -4 -4 -3 -3 -3 -3 -3 -3 -3 -3 -3 -3 -2 -2 -2 -2 -1 -1 -1 -0 0 0 0 0 0 -0 0 2 3 3 2 3 3 3 4 4 6 7 8 9 9 10 9

GFSGBSN_850_temp_108.txt.gz
Temp
4 4 4 4 4 4 4 4 4 5 4 4 5 5 6 7 8 9 10 10 10 10 10 10 10 10 10 8 13 14 14 15 14 14 15 14 14 14 12 12 14 12 13 16 16 16 17
4 4 4 3 3 4 3 3 3 3 2 3 3 4 4 5 6 7 9 10 10 9 10 10 10 9 7 5 14 14 14 14 13 13 14 14 14 15 14 13 12 15 14 15 16 16 16
2 2 2 2 3 3 3 3 2 1 1 3 3 3 3 4 6 7 8 10 10 9 10 10 9 9 6 12 14 13 12 13 14 14 14 14 13 13 14 13 15 15 13 13 12 15 14
2 2 1 1 2 2 2 3 2 2 1 1 2 2 3 5 6 6 8 10 10 9 9 8 9 8 7 13 12 12 12 13 14 14 14 15 14 13 13 14 14 14 13 12 14 14 15
2 2 2 2 1 1 1 1 1 1 2 2 2 2 3 4 4 5 7 9 9 9 7 7 7 6 7 10 11 11 11 12 13 13 13 13 13 13 13 11 11 11 11 12 14 14 16
2 1 2 1 1 1 1 2 2 2 3 3 2 2 3 4 4 5 6 9 9 7 6 6 4 4 9 10 10 11 11 11 11 12 12 12 12 10 8 9 10 11 10 12 12 15 15
0 1 1 1 2 1 2 1 3 2 3 2 2 2 3 4 4 4 5 7 6 6 6 3 5 3 5 9 11 11 10 11 12 12 10 11 9 10 11 10 12 12 11 11 13 14 15
0 1 1 1 1 2 2 3 3 2 2 2 2 3 3 4 4 3 3 1 -0 -1 0 2 3 4 5 5 4 7 9 8 10 9 10 10 9 11 10 10 10 11 11 12 12 13 14
-0 -1 -0 1 1 3 3 3 2 2 2 2 2 3 3 3 3 3 2 1 1 1 0 3 6 4 6 6 4 6 8 9 8 9 9 10 11 12 11 10 10 10 11 11 12 14 13
-1 -1 1 1 2 3 2 2 2 2 2 2 2 2 2 3 3 2 1 2 2 2 -0 3 4 7 7 7 6 10 10 9 8 9 8 9 11 11 10 10 11 10 10 11 11 11 10
-1 -1 0 1 3 2 2 2 2 2 2 2 2 2 1 0 1 1 1 2 2 2 -0 6 7 8 6 7 7 9 9 9 8 7 9 10 9 10 10 11 11 11 12 11 11 10 11
-2 -1 0 1 1 1 1 1 1 1 1 1 1 1 0 0 0 -0 0 2 2 -0 0 4 7 5 5 5 7 8 9 9 9 7 8 10 12 10 11 12 12 12 12 12 11 9 8
-2 -2 -2 -0 -0 -0 0 0 0 0 0 0 1 0 -0 -0 -0 -1 -0 1 -1 -1 4 4 3 3 4 5 6 5 5 7 7 7 6 8 9 11 12 12 11 11 10 9 9 8 10
-2 -2 -2 -1 -2 -2 -1 -1 -0 -0 -1 -0 0 0 -0 -1 -0 -0 0 -3 -5 2 3 3 3 2 3 4 4 4 5 6 8 8 6 6 7 9 10 11 10 10 11 9 11 9 10
-2 -2 -2 -3 -2 -2 -2 -1 -1 -1 -1 -1 -0 0 -0 -0 -0 -0 0 -7 -1 1 3 2 3 3 4 4 3 3 4 4 6 6 7 7 8 10 10 10 12 10 10 12 11 11 10
-3 -2 -2 -3 -3 -2 -2 -1 -1 -1 -1 -1 -1 -0 -0 -0 -1 -0 -2 0 0 2 3 3 1 3 2 3 3 2 3 3 3 5 5 7 8 11 12 11 11 11 11 11 9 11 11
-2 -2 -3 -3 -3 -2 -2 -2 -2 -2 -1 -1 -1 -1 -1 -1 -1 -1 -4 -1 1 2 3 1 2 2 3 3 2 2 2 3 5 4 4 4 7 9 11 11 9 10 10 11 10 9 11
-3 -3 -3 -3 -3 -2 -2 -2 -2 -2 -2 -2 -2 -7 -1 -1 -2 -2 -1 0 2 2 3 2 2 3 3 2 2 2 2 3 6 4 4 4 5 7 9 8 9 11 10 11 9 10 9
-2 -2 -2 -3 -2 -2 -2 -2 -2 -2 -2 -2 -2 -2 -2 -2 -2 -4 -1 1 1 1 2 3 2 4 4 3 2 5 3 6 6 5 3 3 4 6 8 7 8 8 9 10 11 9 10
-2 -2 -2 -3 -3 -2 -2 -2 -2 -2 -2 -2 -3 -6 -2 -2 -2 -2 -4 -1 1 2 2 2 2 3 2 3 5 4 5 6 5 5 5 4 4 4 5 5 7 6 8 8 9 9 10
-1 -2 -2 -3 -3 -3 -3 -2 -2 -2 -2 -2 -3 -5 -3 -4 -4 -2 -1 -0 0 0 1 1 2 2 1 2 3 3 4 5 6 6 6 5 4 5 6 7 8 8 6 7 8 8 10
-1 -2 -2 -3 -3 -3 -3 -2 -2 -2 -2 -3 -3 -3 -3 -2 -2 -2 -2 -1 0 0 1 1 1 1 2 1 2 2 3 3 4 5 5 5 3 4 5 7 7 7 6 5 9 9 8
-2 -2 -2 -3 -3 -3 -3 -3 -3 -2 -3 -3 -3 -3 -2 -2 -2 -3 -2 -0 -1 -0 1 2 2 1 1 2 2 2 2 3 3 3 3 4 3 3 5 5 6 6 7 8 8 9 8
-2 -3 -3 -3 -3 -3 -3 -2 -3 -2 -3 -3 -3 -3 -3 -4 -2 -1 -1 -1 -1 -0 -1 1 1 1 2 2 3 4 2 1 2 2 3 3 4 4 5 5 6 9 9 9 8 9 9
-2 -3 -3 -3 -4 -3 -3 -3 -3 -2 -3 -3 -3 -3 -3 -5 -2 -1 -1 -1 -1 -0 -1 0 1 2 1 1 1 2 2 3 3 2 3 2 4 3 4 6 7 9 9 8 8 8 8
-2 -3 -3 -3 -4 -3 -3 -3 -3 -2 -3 -3 -3 -3 -3 -4 -3 -2 -2 -1 -2 -2 -1 0 1 2 1 -1 -2 0 1 3 4 4 3 3 3 3 4 5 4 8 8 8 7 7 8
-2 -3 -3 -3 -4 -3 -3 -3 -3 -3 -3 -3 -3 -4 -4 -4 -2 -2 -3 -2 -1 -1 -2 -1 -0 0 1 -2 -1 -0 2 3 1 2 3 2 1 3 3 3 5 7 7 8 7 7 8
-3 -3 -3 -3 -4 -4 -3 -3 -3 -3 -3 -3 -3 -3 -4 -4 -3 -2 -2 -2 -1 -2 -3 -1 -2 -1 -1 -2 -1 1 1 1 2 1 2 3 2 -0 1 1 3 7 8 8 7 7 9
-3 -3 -3 -3 -3 -4 -4 -3 -3 -3 -3 -3 -3 -3 -3 -4 -3 -2 -2 -2 -1 -1 -2 -1 -1 -1 -0 -2 -1 -0 -0 1 2 2 2 1 3 3 3 3 5 7 7 8 8 8 7

GFSGBSN_850_temp_111.txt.gz
Temp
4 4 4 4 4 5 6 6 6 6 6 7 7 7 8 9 9 9 10 11 11 11 11 11 11 11 11 11 13 14 14 14 14 13 14 14 13 13 14 13 13 13 14 15 15 16 16
4 3 3 4 4 5 6 6 4 4 4 6 7 7 8 7 8 9 10 11 11 11 12 11 11 10 9 8 14 14 14 13 13 12 12 12 14 14 13 13 14 15 15 15 15 16 15
2 2 2 3 4 5 5 5 4 4 4 5 6 7 7 7 8 9 10 10 11 12 11 11 11 9 8 13 13 11 12 12 12 12 12 13 13 12 13 14 14 14 14 15 15 15 16
2 3 2 2 3 3 3 2 3 4 5 5 6 6 6 5 7 9 11 11 11 11 11 10 8 8 9 12 11 11 11 12 12 12 13 13 13 12 12 13 14 14 14 14 15 15 16
1 2 2 2 1 2 1 2 4 5 4 4 5 6 5 5 7 8 10 10 11 10 9 8 7 6 9 11 12 12 11 10 11 12 12 11 12 12 12 13 13 13 14 14 15 15 17
1 1 1 1 0 2 2 3 4 3 3 4 5 5 5 5 5 7 9 10 10 9 7 8 6 6 10 10 10 9 11 9 10 11 11 10 11 12 11 13 12 13 13 13 14 16 16
-0 0 1 -0 1 2 3 2 3 2 3 5 4 5 4 4 5 6 9 9 8 7 6 2 5 2 5 7 5 7 8 8 9 11 11 11 11 11 13 13 14 14 13 13 14 15 16
-0 0 -0 0 1 1 1 2 2 3 4 3 3 4 4 4 5 4 5 3 -2 -1 -1 4 5 3 6 5 2 8 7 6 8 10 11 10 11 13 12 12 12 13 13 13 14 14 15
-0 -1 -1 -0 0 1 1 2 2 3 3 3 3 3 4 4 5 5 3 1 1 1 -1 2 5 5 5 6 5 6 6 7 7 8 10 11 13 13 11 11 11 12 12 13 13 14 15
-1 -1 -1 -0 1 2 2 2 2 3 3 3 3 3 4 4 4 3 2 2 2 2 2 4 6 6 5 6 6 6 8 7 8 8 9 10 12 12 11 11 12 12 12 12 13 12 13
-1 -1 -1 -0 1 1 2 2 2 2 2 3 2 3 3 3 2 2 2 2 2 2 5 5 6 6 5 5 5 7 8 8 8 8 9 10 10 11 11 12 12 12 12 12 13 12 12
-1 -2 -1 -1 -0 0 1 0 1 1 2 2 2 2 2 2 2 2 2 2 2 3 3 4 5 5 4 5 6 6 6 6 8 8 8 9 9 11 13 12 13 13 12 12 11 12 11
-2 -2 -2 -2 -1 -1 -1 -0 0 1 1 2 2 1 2 1 1 1 2 2 2 2 4 4 3 4 3 4 5 4 4 5 6 7 8 9 9 11 12 12 12 12 12 11 11 11 12
-2 -2 -2 -3 -2 -2 -2 -1 -0 0 1 1 1 1 1 0 1 1 1 -1 -0 3 3 4 3 3 3 5 5 5 4 4 7 7 8 8 9 9 11 12 12 11 12 12 11 11 13
-2 -2 -2 -2 -2 -3 -2 -2 -1 -0 0 1 1 1 -0 0 1 0 1 -2 1 1 2 2 3 3 3 5 4 4 3 3 2 2 6 7 8 10 10 12 13 11 11 14 12 11 12
-2 -2 -2 -2 -3 -3 -2 -2 -1 -1 -0 0 0 -0 -1 -0 -0 -0 -1 1 1 2 3 2 1 3 2 3 3 3 3 3 3 3 1 5 6 11 11 12 13 12 13 11 12 12 12
-2 -2 -2 -3 -3 -3 -2 -2 -2 -1 -1 -1 0 -1 -1 -1 -1 -1 -1 0 1 2 2 2 2 2 3 2 3 3 3 3 5 6 4 3 5 10 10 11 11 11 12 12 13 12 13
-2 -2 -2 -3 -3 -3 -2 -2 -2 -2 -1 -1 -1 -4 -2 -2 -2 -2 -1 -0 1 1 2 2 2 2 2 3 2 3 2 3 5 5 3 3 4 7 11 8 8 12 12 13 13 12 13
-2 -2 -2 -2 -2 -2 -2 -2 -2 -2 -2 -1 -2 -2 -2 -2 -3 -2 -1 0 1 1 2 2 2 2 3 2 3 4 5 6 6 6 4 3 5 6 9 9 8 7 9 11 12 11 13
-2 -2 -2 -2 -2 -2 -2 -2 -2 -2 -2 -2 -2 -5 -2 -2 -2 -1 -2 -1 1 2 1 2 2 2 1 2 4 4 4 6 5 6 6 2 4 5 7 7 7 7 7 8 10 11 13
-1 -1 -2 -3 -2 -2 -2 -2 -2 -2 -2 -2 -2 -4 -3 -4 -2 -2 -1 -0 0 0 1 1 2 2 1 2 2 4 4 4 5 6 5 5 4 4 5 7 8 8 7 7 8 10 12
-1 -1 -1 -2 -3 -2 -2 -2 -2 -2 -2 -2 -2 -3 -3 -2 -2 -2 -1 -0 0 0 0 1 1 1 1 1 2 2 2 2 3 5 4 5 5 4 4 7 8 7 7 7 9 9 9
-1 -1 -2 -2 -2 -2 -2 -3 -2 -3 -3 -3 -3 -3 -2 -3 -2 -2 -1 -0 -0 -1 0 1 1 0 1 2 1 1 1 1 2 2 3 3 4 5 6 7 6 8 7 7 8 9 9
-1 -2 -2 -2 -2 -2 -3 -3 -2 -3 -3 -2 -3 -3 -3 -3 -2 -1 -1 -1 -1 -1 -1 -0 -0 0 2 1 2 3 1 1 1 2 2 3 3 5 6 7 6 9 9 9 8 7 10
-2 -2 -2 -2 -3 -3 -3 -3 -3 -3 -3 -3 -3 -3 -3 -3 -2 -1 -1 -1 -1 -1 -1 -1 0 1 1 1 2 3 4 5 5 4 2 3 4 4 5 6 8 8 8 8 8 9 9
-2 -2 -2 -3 -3 -3 -3 -3 -3 -3 -3 -3 -3 -3 -3 -4 -2 -2 -2 -1 -1 -1 -1 -0 1 1 0 0 0 2 2 3 4 5 4 3 3 4 5 5 6 8 9 8 8 9 8
-2 -2 -2 -2 -3 -3 -3 -3 -3 -3 -3 -3 -3 -3 -4 -4 -2 -2 -2 -2 -2 -1 -1 -1 -1 -0 -0 -1 1 2 3 3 3 3 4 4 3 3 4 4 6 8 8 8 9 8 7
-2 -2 -2 -3 -3 -3 -3 -3 -3 -3 -4 -3 -3 -3 -3 -4 -2 -2 -2 -2 -2 -2 -1 -2 -1 -1 -0 0 0 1 1 2 2 3 3 3 3 3 4 4 4 6 8 8 7 6 7
-2 -2 -3 -3 -3 -3 -3 -3 -3 -3 -3 -3 -3 -3 -3 -4 -3 -2 -2 -2 -2 -2 -2 -2 -1 -2 -1 -0 0 1 1 1 2 2 1 3 2 3 4 5 4 4 4 4 6 7 6

GFSGBSN_850_temp_117.txt.gz
Temp
5 7 6 6 7 7 7 8 9 9 9 9 10 10 10 11 11 11 11 12 12 12 13 13 14 14 14 14 15 12 13 12 13 13 15 16 17 18 19 20 21 21 22 22 22 22 21
4 4 5 5 5 7 7 8 8 9 9 9 10 10 10 11 10 10 11 11 12 12 13 13 13 13 10 16 12 11 11 12 13 14 14 15 16 17 18 19 20 20 21 22 21 21 22
4 4 4 4 5 5 7 8 8 8 9 9 9 10 10 10 10 10 11 11 12 12 12 12 12 12 10 12 11 11 11 12 12 13 13 14 15 15 17 19 19 19 19 20 21 21 22
4 3 3 3 4 4 7 8 8 8 8 9 9 10 10 10 10 10 11 11 12 12 11 11 11 8 13 10 10 10 10 11 12 12 12 12 12 14 15 16 17 18 19 19 21 22 22
3 2 2 2 3 4 6 7 7 8 8 8 8 9 9 10 10 10 10 11 11 11 10 11 8 9 13 10 10 10 11 10 11 12 12 12 12 13 14 15 16 18 18 19 21 23 23
2 1 1 1 2 4 5 7 7 7 8 8 8 8 9 9 10 10 10 11 11 11 9 7 8 11 10 9 9 10 11 11 12 11 12 13 14 16 17 16 16 17 18 20 20 22 23
1 1 1 1 2 4 5 7 7 7 7 7 8 8 8 8 9 9 11 9 10 9 9 9 8 8 9 9 10 12 11 12 13 14 15 15 16 16 18 19 18 17 17 17 19 22 21
1 1 1 1 1 3 5 6 6 7 7 7 8 8 7 7 8 9 7 7 5 6 10 8 8 8 8 9 11 12 11 12 12 13 15 15 15 17 18 18 19 19 17 17 19 20 20
0 1 0 0 0 2 4 5 6 6 7 7 7 7 6 7 7 6 4 4 3 3 9 10 9 9 9 10 11 11 10 11 12 12 13 14 15 16 16 16 17 18 18 18 18 19 20
0 0 0 0 -0 0 4 5 5 6 6 7 6 6 6 6 6 5 5 3 3 2 11 11 11 10 10 10 12 10 10 10 12 11 12 12 14 14 15 15 16 16 19 18 18 17 17
0 -0 -0 -0 -1 0 2 4 5 5 6 6 6 6 6 6 5 6 4 3 3 4 13 11 11 9 10 11 10 12 10 11 11 12 11 11 12 12 14 15 16 16 18 18 18 17 17
-0 -0 -0 -1 -1 -1 1 2 3 4 4 5 5 5 5 4 3 4 4 4 4 10 11 11 11 11 11 11 11 11 11 11 10 11 12 12 12 13 13 14 15 16 16 17 17 17 15
-0 -1 -1 -1 -1 -1 0 1 1 3 3 3 4 4 4 3 5 5 5 5 11 12 11 10 9 10 10 11 11 11 11 12 9 8 9 10 12 13 14 13 14 15 14 14 13 15 15
-1 -1 -1 -2 -2 -2 -1 0 1 1 2 2 3 3 3 2 3 4 4 9 8 10 10 10 9 10 10 10 10 10 11 10 11 8 7 8 9 11 9 9 13 14 14 14 13 14 16
-1 -1 -2 -2 -2 -2 -2 -1 -0 1 1 2 2 1 2 3 4 3 7 8 10 9 7 7 9 9 10 10 10 10 10 9 9 8 4 6 7 9 12 12 13 14 14 16 15 17 16
-1 -1 -2 -2 -2 -1 -2 -1 -0 0 1 1 2 3 2 2 3 3 8 8 9 8 8 8 7 8 8 9 9 9 8 8 9 9 9 5 4 9 11 10 13 15 16 14 15 13 14
-1 -1 -2 -1 -2 -2 -2 -1 -1 0 1 1 2 5 1 2 2 6 7 9 8 7 6 7 8 7 8 8 8 8 7 8 10 10 9 7 4 8 8 9 13 14 14 16 16 16 15
-1 -1 -1 -1 -2 -2 -2 -2 -1 -0 -0 1 2 5 1 0 6 7 8 7 5 7 6 7 7 7 7 7 7 8 7 9 9 9 7 5 4 6 7 10 11 14 15 16 14 14 16
-1 -1 -1 -1 -2 -2 -2 -2 -1 -1 -0 1 4 4 -0 1 4 7 6 7 6 7 7 7 7 8 8 7 7 8 9 10 9 9 7 6 6 5 10 8 8 9 15 16 16 17 16
-0 -1 -1 -1 -2 -2 -2 -2 -2 -1 -0 -0 3 3 2 1 4 5 5 6 6 5 6 6 7 7 7 7 8 8 8 10 8 8 6 6 6 5 5 6 7 5 9 14 15 14 16
-0 -1 -1 -1 -2 -2 -2 -2 -2 -1 -1 -1 1 4 5 2 3 6 6 6 5 5 6 6 7 7 7 6 7 8 9 9 9 8 8 7 5 7 8 10 9 10 9 11 12 12 14
-1 -1 -1 -1 -1 -2 -2 -2 -2 -2 -1 -0 -0 4 2 5 5 5 3 5 6 6 5 6 6 7 7 6 7 7 7 7 7 8 7 7 6 7 8 10 10 9 9 9 12 13 15
-1 -1 -1 -1 -1 -1 -2 -2 -2 -2 -2 0 1 1 3 4 4 5 6 5 5 6 5 5 6 6 5 6 6 6 5 6 7 7 6 6 6 7 8 10 8 8 9 11 10 11 13
-1 -1 -1 -1 -2 -2 -2 -2 -2 -2 -1 -0 1 2 2 4 6 5 5 5 5 5 5 5 5 5 5 5 4 5 7 9 10 10 9 6 6 8 7 9 7 9 12 10 11 12 12
-1 -1 -1 -1 -1 -1 -2 -2 -2 -2 -2 -2 -1 1 2 3 5 5 4 4 4 4 4 4 4 4 4 4 5 6 8 9 9 10 10 9 7 7 7 8 9 9 11 11 10 11 11
-1 -1 -1 -1 -1 -1 -2 -2 -2 -2 -2 -2 -1 -1 1 2 4 4 4 4 5 6 6 5 4 4 3 5 5 4 6 7 8 9 9 9 8 7 8 7 7 9 10 11 12 9 8
-1 -1 -1 -1 -1 -2 -2 -2 -2 -2 -2 -3 -2 -2 -1 0 2 2 4 4 4 4 5 5 4 4 4 4 4 5 6 6 6 6 6 7 7 7 8 8 10 10 10 10 8 6 7
-1 -1 -1 -1 -1 -2 -2 -2 -2 -2 -2 -3 -2 -2 -1 -0 2 1 1 2 3 3 4 4 4 4 5 4 5 5 6 6 6 6 5 5 5 6 8 8 7 6 8 5 4 5 3
-2 -2 -1 -2 -2 -2 -2 -2 -2 -3 -2 -2 -2 -2 -2 -2 -1 -1 -0 0 1 2 1 2 3 2 3 4 4 5 4 5 5 5 5 4 4 4 4 5 4 1 1 3 3 3 2

GFSGBSN_850_temp_120.txt.gz
Temp
8 8 8 9 8 8 9 9 9 9 9 9 9 10 10 10 10 11 12 12 13 13 14 14 14 14 15 14 15 13 13 13 14 15 15 16 17 18 19 20 21 21 21 22 22 22 22
7 8 7 7 7 8 8 8 9 9 9 9 9 10 10 10 10 11 12 12 13 13 14 14 14 13 12 16 13 13 13 13 14 15 15 16 16 17 18 18 20 20 20 21 21 22 22
5 7 7 6 6 7 8 8 8 9 9 9 9 9 9 10 10 11 12 12 13 13 13 13 13 13 11 14 13 12 12 12 12 13 14 15 14 15 17 18 19 20 19 20 21 21 21
5 5 6 5 5 6 6 8 8 8 8 9 9 9 9 10 10 11 12 12 13 12 12 12 11 10 14 12 12 12 12 13 13 13 13 13 14 14 15 16 17 17 18 18 20 22 22
3 4 4 5 4 5 5 7 7 8 8 8 9 9 9 10 10 11 12 12 12 11 11 10 10 11 14 12 12 11 12 13 13 14 13 14 14 14 15 16 15 17 16 17 19 22 22
3 2 3 3 3 4 5 6 7 7 8 8 8 9 9 10 10 11 12 11 11 10 11 9 10 12 12 11 12 12 13 13 14 14 15 15 15 15 16 16 14 16 16 18 18 20 21
3 2 2 2 2 3 4 5 6 7 7 7 8 8 9 10 10 10 12 11 11 10 11 10 11 11 12 11 12 13 13 13 14 14 15 16 15 15 17 17 18 18 17 17 18 19 20
2 2 1 1 2 3 1 3 5 6 7 7 7 8 9 9 9 9 8 9 6 7 10 10 10 10 10 10 12 13 12 13 13 13 14 14 14 16 17 17 17 17 17 17 19 20 19
1 1 0 0 1 0 1 3 5 6 6 6 7 7 8 9 8 7 6 6 5 5 9 11 11 11 11 11 12 13 12 12 13 12 13 12 13 15 14 14 15 16 15 16 17 19 19
1 1 -0 1 1 0 1 3 4 5 6 6 6 7 7 7 7 7 6 5 4 5 11 12 12 12 12 12 13 12 12 12 13 12 13 12 14 13 13 13 14 13 16 17 17 17 16
1 1 0 1 0 -0 1 3 4 4 5 5 6 6 6 7 7 8 5 4 4 5 12 12 13 11 12 13 12 13 12 12 12 12 12 11 12 12 12 12 13 13 15 15 16 16 17
0 0 0 0 0 -0 2 4 4 5 5 5 5 5 5 5 5 4 4 5 5 9 11 11 13 12 12 13 13 13 12 12 13 12 12 12 12 12 13 13 11 12 13 13 14 15 14
0 0 0 -0 -0 -1 0 2 3 4 4 4 5 5 5 4 5 5 6 5 9 10 13 12 12 12 12 13 12 12 12 12 11 7 8 10 11 12 13 10 11 10 10 10 11 12 13
0 0 -0 -0 -1 -1 0 1 3 3 3 4 4 4 4 3 3 5 5 9 8 12 12 11 11 11 12 12 12 12 11 10 11 9 8 8 8 10 11 9 9 7 9 10 9 12 14
-0 -1 -1 -1 -1 -2 -1 -0 1 2 2 3 3 3 3 3 4 4 6 8 11 12 10 9 11 11 12 12 11 11 10 9 10 10 6 6 7 10 11 11 10 9 11 12 12 13 13
-0 -0 -1 -1 -1 -2 -2 -1 -0 1 1 2 2 3 5 4 4 4 7 9 11 10 10 10 9 10 9 10 9 9 9 9 9 10 9 8 6 9 10 10 11 10 12 11 12 10 11
-0 -1 -1 -1 -1 -2 -1 -1 -0 0 1 2 2 5 3 4 5 5 7 10 10 9 9 9 9 9 9 9 9 9 9 10 10 10 10 9 6 7 8 5 5 6 8 12 13 13 12
0 -0 -1 -1 -1 -1 -2 -2 -1 0 1 2 3 6 2 4 6 8 9 10 7 9 8 9 8 8 8 9 8 9 8 10 11 10 8 9 6 5 7 6 9 11 7 9 12 12 14
-0 -1 -1 -1 -1 -1 -2 -2 -1 -0 1 1 4 6 2 3 5 8 9 9 8 9 9 9 9 9 9 8 8 9 9 11 9 9 8 7 6 5 7 9 9 9 10 10 10 12 13
-1 -1 -1 -1 -1 -2 -2 -2 -1 -0 0 1 4 4 4 3 5 6 8 8 8 7 8 8 8 9 8 8 9 8 9 10 10 10 7 8 6 5 4 5 8 8 8 8 9 10 13
-0 -0 -1 -1 -1 -2 -2 -2 -2 -1 -0 0 3 4 6 4 4 6 8 8 7 7 7 7 8 8 8 7 7 8 9 9 9 9 9 9 6 6 8 9 10 9 10 9 10 12 9
-0 -1 -1 -1 -1 -1 -2 -2 -2 -1 -1 -1 1 4 5 5 6 6 5 7 7 8 8 7 7 8 8 7 7 7 7 7 7 8 8 8 6 7 8 9 11 10 9 7 11 12 12
-0 -1 -1 -1 -1 -1 -1 -1 -2 -1 -1 0 2 3 3 6 7 6 7 7 7 8 7 7 7 7 7 7 7 6 6 6 7 7 7 8 7 7 6 9 9 8 5 7 6 9 10
-0 -0 -1 -1 -1 -1 -1 -1 -2 -1 -1 0 2 3 4 4 6 7 7 7 7 7 6 7 6 6 6 6 5 6 7 8 9 10 10 9 8 7 6 8 7 6 10 11 10 5 7
-0 -1 -1 -1 -1 -1 -1 -1 -1 -1 -1 -1 -1 1 3 4 6 7 7 6 6 6 5 5 5 6 5 5 5 6 7 8 9 9 10 10 8 6 6 8 9 7 9 9 9 8 6
-1 -1 -1 -1 -1 -1 -1 -2 -1 -1 -1 -1 -1 -0 1 3 5 6 6 5 5 6 6 6 6 5 5 5 5 4 5 7 7 8 9 9 9 6 7 6 7 5 8 9 11 7 4
-1 -1 -1 -1 -1 -1 -1 -1 -2 -2 -2 -2 -2 -0 -0 1 2 3 5 5 5 5 6 6 6 5 5 4 4 4 5 7 5 5 6 6 7 6 6 7 7 3 6 8 5 4 3
-1 -1 -1 -1 -1 -1 -1 -2 -2 -2 -2 -2 -2 -1 -1 0 2 2 3 3 4 4 5 5 5 5 4 4 5 5 5 6 6 6 5 5 5 5 5 7 5 1 4 3 2 2 1
-2 -1 -1 -1 -1 -1 -1 -2 -2 -2 -2 -2 -2 -1 -1 -1 -0 -1 0 1 2 3 2 3 4 4 4 4 4 4 4 5 6 5 5 4 3 3 4 3 1 0 -1 -2 -1 -0 -0

GFSGBSN_850_temp_123.txt.gz
Temp
9 9 9 9 10 9 10 10 10 10 10 10 10 10 10 11 12 12 12 13 13 13 14 14 15 15 15 14 13 13 13 14 14 14 15 15 16 16 14 15 16 16 17 19 20 20 20
9 9 9 9 9 9 9 9 9 9 9 9 10 10 10 11 11 12 12 12 13 13 13 14 14 14 14 14 13 13 13 13 13 14 14 14 14 15 15 16 15 17 17 18 18 19 19
9 9 8 9 8 8 9 9 9 9 9 9 9 10 10 11 11 11 12 12 13 13 13 13 13 13 12 13 12 12 12 13 13 13 13 14 14 13 14 13 16 16 14 15 16 18 18
9 8 7 7 7 6 8 9 9 8 8 9 9 9 10 10 11 11 11 12 12 12 12 12 12 12 12 13 12 12 12 13 13 13 14 14 14 13 14 14 14 13 13 12 16 16 18
8 7 6 6 5 5 6 7 8 8 8 8 8 9 9 10 10 11 11 12 12 12 12 11 11 11 12 12 12 13 13 13 13 14 14 14 14 14 13 11 10 11 10 11 14 16 17
6 5 4 4 4 4 5 5 6 7 8 8 8 8 9 9 10 11 11 11 11 11 11 11 11 10 12 12 12 13 13 13 13 13 14 15 14 11 10 10 10 10 11 13 14 16 16
7 5 4 3 3 3 3 4 5 6 7 7 7 8 8 9 10 10 11 11 11 10 10 10 11 11 11 11 12 13 12 12 12 13 10 13 10 9 11 12 12 12 12 13 15 16 16
6 5 4 3 2 2 2 3 4 5 6 6 7 7 8 9 9 9 9 8 7 7 8 10 10 10 11 11 12 13 12 12 12 10 11 10 9 12 13 13 12 12 11 11 13 15 16
6 5 3 3 2 2 1 2 3 4 5 6 7 7 8 8 8 7 7 7 7 7 6 11 11 12 11 12 12 13 12 12 11 10 10 9 11 13 12 11 11 11 11 11 11 13 14
5 4 3 2 2 1 1 2 3 3 4 5 6 7 7 7 8 6 6 6 7 6 6 11 11 11 11 12 12 13 12 12 11 10 11 10 12 11 10 10 11 9 11 11 11 10 10
4 3 2 2 1 1 0 2 2 3 4 4 6 6 7 7 7 6 5 6 6 5 8 11 12 12 12 12 12 13 12 12 10 10 11 9 10 9 9 10 11 10 10 10 10 9 10
3 2 2 1 1 -0 1 2 3 2 4 4 6 6 6 6 5 6 6 6 6 6 8 11 12 12 12 12 13 13 12 12 13 11 10 9 10 10 10 11 10 10 9 9 9 9 8
2 1 1 1 0 0 0 -0 3 3 3 4 5 5 5 5 4 5 6 6 6 6 13 11 11 12 11 11 12 12 11 9 7 6 6 8 9 9 11 8 9 9 6 5 6 7 8
1 1 0 0 0 -0 -1 -1 1 2 3 4 4 5 4 4 5 6 6 4 6 13 12 11 11 11 10 12 11 11 9 7 9 7 5 5 5 8 9 8 8 7 8 6 5 7 8
0 0 0 0 -0 -0 -1 -1 0 2 3 3 4 3 3 4 5 6 5 3 7 11 10 10 10 9 11 11 10 9 8 6 8 8 4 5 6 8 9 9 7 4 5 8 6 7 8
-0 -0 -0 0 -0 -1 -1 -1 0 1 2 3 3 3 3 4 5 5 3 6 10 10 10 10 8 10 9 9 8 7 8 8 8 9 8 6 4 8 9 9 9 7 7 7 7 7 7
-0 -1 -1 -1 -1 -1 -2 -2 0 1 1 2 3 4 4 4 5 5 2 6 10 9 9 9 9 9 8 8 8 7 7 7 9 8 8 6 4 6 6 6 6 7 5 5 6 8 8
-0 -1 -1 -1 -1 -1 -1 -1 -1 0 2 2 3 2 3 4 3 5 4 9 9 8 8 8 8 8 7 8 7 7 7 8 9 8 6 6 2 3 5 7 9 8 7 5 6 6 7
-0 -0 -1 -1 -1 -1 -1 -1 -1 0 2 2 3 3 3 4 2 3 7 9 8 9 9 8 8 8 9 7 6 8 7 9 9 9 6 6 2 2 6 7 8 6 8 9 8 7 7
-1 -0 -0 -1 -1 -1 -1 -2 -0 1 1 2 3 1 3 3 4 4 5 7 7 8 8 8 8 8 7 6 7 6 7 8 8 8 7 6 3 3 2 3 5 5 7 9 9 6 9
-0 -0 -1 -1 -1 -1 -1 -2 -1 -0 1 1 2 2 4 1 2 3 5 7 7 7 7 7 7 7 6 5 6 6 6 6 7 7 6 5 2 3 5 6 7 7 8 5 5 7 8
-1 -1 -1 -1 -1 -1 -1 -2 -1 -0 0 1 2 3 4 5 5 3 4 6 6 8 7 7 6 7 6 5 5 4 4 4 4 5 5 4 3 5 5 6 7 8 5 5 5 6 8
-0 -1 -1 -1 -1 -1 -2 -2 -2 -1 -0 1 2 3 3 4 4 3 3 6 6 7 7 7 6 5 5 5 6 5 5 5 4 4 3 3 4 4 4 6 7 5 5 4 4 4 5
-1 -1 -1 -1 -1 -1 -1 -1 -1 -1 -0 -0 0 2 3 1 3 4 6 7 7 7 6 6 6 5 6 5 5 5 5 5 5 5 6 4 4 5 5 5 5 5 7 6 5 3 3
-1 -1 -1 -1 -1 -1 -1 -1 -1 -1 -0 -0 0 0 1 0 4 5 6 6 6 6 5 5 5 5 5 5 2 2 3 5 7 6 5 5 4 3 4 4 7 4 4 4 4 4 3
-1 -1 -1 -1 -1 -1 -1 -1 -1 -1 -1 -1 -0 -0 0 1 1 3 3 6 3 3 3 5 6 5 5 2 -0 2 2 4 5 6 8 8 4 3 4 4 5 1 3 3 8 4 2
-1 -1 -1 -1 -1 -1 -1 -1 -1 -1 -1 -1 -1 -0 -0 1 2 3 2 2 4 4 2 4 5 5 5 -2 -0 1 2 5 3 3 4 3 3 3 4 4 4 1 2 4 4 2 0
-1 -1 -1 -1 -1 -1 -1 -1 -1 -1 -2 -1 -1 -1 -1 -0 1 1 1 1 2 3 1 3 2 2 1 -0 -0 -0 1 3 3 4 3 2 2 1 3 3 2 -0 2 1 -0 -1 -1
-1 -1 -1 -1 -1 -1 -1 -1 -1 -2 -2 -2 -1 -1 -1 -1 -1 0 1 2 1 1 2 2 2 3 3 0 1 0 0 -1 2 0 2 2 1 1 1 2 -0 -1 -1 -2 -2 -2 -1

GFSGBSN_850_temp_126.txt.gz
Temp
10 10 10 10 9 10 10 10 10 10 10 11 11 11 10 11 11 12 12 13 13 13 14 14 14 14 14 14 13 12 13 13 14 14 14 14 14 14 12 13 14 14 14 16 16 16 17
10 10 10 10 9 9 9 10 10 10 10 11 11 10 10 11 11 12 12 13 13 13 13 13 13 13 13 13 12 12 13 13 13 14 14 14 13 13 13 13 12 14 13 14 15 15 16
10 10 9 10 10 10 9 9 10 9 10 10 10 10 10 11 11 11 12 12 13 13 13 13 13 13 12 13 12 13 13 13 13 13 13 14 13 13 13 11 13 13 11 12 14 15 14
10 10 9 9 9 9 8 9 9 9 9 9 10 10 10 10 10 11 12 12 13 13 12 12 11 11 12 12 12 13 13 13 13 13 13 14 14 13 12 13 12 12 11 9 13 14 15
10 10 10 9 9 8 7 8 8 9 9 9 9 10 10 10 10 10 11 12 12 12 11 11 11 10 12 12 13 13 12 13 13 13 14 14 13 13 13 10 8 9 9 9 12 14 13
10 10 10 9 9 8 6 6 6 7 8 8 8 9 10 10 10 10 11 11 11 11 10 10 10 11 12 12 12 12 12 13 13 13 14 13 13 8 8 7 7 8 8 10 10 12 12
10 9 10 9 8 8 6 6 6 6 6 6 6 7 8 9 9 9 10 10 10 10 10 11 11 11 11 12 12 12 12 12 12 12 9 12 8 8 9 9 10 9 9 9 10 12 11
10 9 9 9 8 6 5 4 4 4 5 5 5 6 7 8 8 8 9 9 8 8 8 10 10 11 11 11 11 12 12 12 11 9 9 7 8 10 10 10 9 9 9 9 10 11 11
10 9 9 7 6 5 3 3 3 4 4 4 5 6 6 7 7 7 7 8 8 8 7 10 11 11 11 11 12 12 12 11 11 10 9 8 9 11 10 9 9 9 8 8 8 9 10
10 10 9 6 5 4 3 3 3 3 3 4 5 6 6 7 7 6 6 6 7 8 6 10 10 11 12 12 11 12 12 12 11 10 9 10 10 9 8 8 9 8 9 8 8 7 6
9 9 7 5 4 3 2 3 2 2 3 4 5 5 6 6 6 5 6 6 7 6 8 10 11 11 12 12 12 12 12 12 10 9 10 8 8 8 7 8 9 8 9 8 8 7 7
8 7 6 5 3 3 2 2 1 3 3 4 4 5 5 5 5 6 6 6 6 7 8 10 11 11 11 12 12 12 12 11 10 9 8 8 9 8 8 9 8 8 8 7 7 6 5
7 6 4 3 3 2 2 1 2 3 3 4 4 5 5 5 4 5 6 6 7 7 12 10 10 11 11 10 11 11 9 7 6 5 5 7 7 8 9 7 7 7 6 4 5 5 7
6 4 4 3 2 1 1 0 2 2 3 3 4 4 4 4 5 5 5 5 7 10 10 11 10 10 9 10 10 9 8 6 8 6 4 4 5 7 8 7 6 6 5 5 5 6 7
3 3 2 1 1 0 -0 1 0 2 3 4 3 4 3 4 5 5 5 4 7 9 10 9 9 9 9 9 8 8 7 4 8 7 3 4 5 7 8 8 7 5 4 6 5 6 6
1 1 0 0 -0 -0 -0 -1 -0 2 3 3 3 3 4 4 5 5 3 6 8 10 10 10 8 9 8 8 7 6 7 7 8 8 5 5 4 7 7 7 7 6 7 4 6 6 6
0 0 -0 -0 -0 -0 -1 -1 0 3 3 3 3 3 3 3 4 5 3 4 9 9 9 9 8 8 7 7 7 6 5 7 8 8 7 6 3 5 5 4 5 5 5 6 5 6 6
-0 -0 -0 -1 -1 -1 -2 -2 0 3 2 3 3 1 3 4 3 3 3 7 9 8 8 8 7 7 7 7 7 6 6 7 8 8 6 5 1 3 5 6 6 7 6 6 4 5 6
-1 -1 -1 -1 -1 -1 -1 0 1 2 2 3 3 2 2 4 1 2 5 8 8 8 8 7 7 8 7 6 6 6 7 8 7 6 6 5 1 2 5 5 6 5 6 6 7 7 6
-1 -1 -1 -1 -1 -1 -1 -2 -0 1 3 3 4 0 2 3 3 4 5 6 7 7 7 7 7 7 6 6 6 6 6 7 6 6 7 5 2 0 0 2 4 3 5 6 4 5 6
-1 -1 -1 -1 -1 -1 -1 -1 0 1 1 3 3 1 3 -1 1 3 5 7 7 6 7 7 7 6 6 5 5 5 5 4 5 6 5 4 1 1 3 4 5 5 4 4 5 4 5
-1 -1 -0 -1 -1 -1 -2 -1 0 1 2 3 3 3 4 3 4 2 3 5 6 7 6 6 5 6 4 4 4 3 3 3 3 4 4 3 1 3 4 5 6 6 5 4 4 3 4
-1 -1 -1 -1 -1 -1 -1 -0 0 1 1 2 2 3 4 3 3 2 3 6 6 6 6 6 5 4 4 4 4 4 4 4 3 3 2 2 2 3 4 5 5 5 3 4 3 3 3
-1 -1 -1 -1 -1 -1 -2 -1 -0 0 1 2 2 3 3 1 2 3 6 6 5 6 5 4 5 4 4 5 5 5 5 4 3 3 3 2 2 2 3 4 2 3 5 4 3 3 2
-1 -1 -1 -1 -1 -1 -1 -1 -1 0 0 1 2 2 2 0 2 3 4 5 5 5 4 5 5 5 5 4 1 1 2 4 5 5 4 3 3 2 3 4 5 3 3 2 2 3 2
-1 -1 -1 -1 -1 -1 -1 -1 -1 -0 0 0 1 2 1 1 1 2 2 4 1 2 2 4 5 5 5 1 -1 1 1 4 4 5 6 5 3 2 3 3 3 1 2 2 2 3 0
-1 -1 -1 -1 -1 -1 -1 -1 -1 -1 -0 -0 0 1 1 1 1 2 1 2 3 2 0 2 4 4 4 -4 -1 0 1 4 3 3 3 2 1 2 2 2 1 0 0 1 3 0 -1
-1 -1 -1 -1 -1 -1 -1 -1 -1 -1 -0 -0 -1 0 1 0 0 1 1 2 2 2 -0 2 1 1 -1 -2 -1 -2 0 2 2 3 3 1 2 -1 1 1 1 -1 1 0 -1 -2 -2
-1 -1 -1 -1 -1 -1 -1 -1 -1 -1 -0 -0 -1 -1 0 0 0 1 1 1 1 1 2 2 1 2 2 -1 -1 -0 0 -2 1 -0 1 -1 -0 -1 -0 -0 -0 -1 -2 -2 -2 -3 -2

GFSGBSN_850_temp_132.txt.gz
Temp
11 11 11 10 11 11 11 11 11 11 11 11 12 11 12 12 12 12 12 12 12 12 13 13 13 13 13 13 14 13 13 13 13 13 13 13 13 13 12 11 12 11 11 12 13 13 13
10 10 11 10 11 11 11 11 11 11 11 11 11 11 12 12 11 11 12 11 12 12 12 13 13 13 13 13 13 13 13 13 13 13 13 13 13 13 12 11 11 11 11 11 11 13 12
10 10 10 10 10 11 10 10 10 10 11 11 11 11 12 12 12 11 11 11 12 12 12 13 13 13 13 13 12 12 13 13 13 13 13 13 13 13 12 11 11 11 10 9 9 11 10
9 10 10 10 10 10 10 10 10 10 11 11 11 11 11 11 11 11 11 11 11 12 12 12 12 12 13 12 12 12 12 13 13 13 13 13 13 13 12 12 10 8 7 7 8 9 11
8 9 9 10 9 10 10 10 10 10 10 10 11 11 11 11 11 11 11 11 11 11 11 11 11 11 12 12 12 12 12 13 13 13 13 13 13 11 11 7 6 5 6 6 7 9 8
8 8 9 9 9 10 10 10 10 10 10 10 10 11 10 10 10 11 10 11 11 11 11 10 10 11 11 12 12 12 12 12 13 12 13 12 11 7 5 5 6 6 5 6 6 7 8
7 7 8 8 9 9 9 10 9 10 10 10 10 10 10 9 9 10 10 11 11 11 10 12 11 11 11 11 12 12 12 12 12 11 9 9 7 6 7 8 8 7 6 5 6 7 6
6 6 6 7 8 8 9 9 10 9 9 10 9 9 9 8 9 9 9 9 11 9 9 11 10 10 11 11 11 12 12 12 10 8 8 6 6 8 8 8 7 6 5 5 6 7 7
5 5 6 6 7 7 8 8 9 9 9 9 9 9 9 8 7 7 8 9 10 10 8 10 10 10 11 11 11 11 12 11 9 9 8 6 7 8 8 7 6 6 5 5 5 6 6
3 3 4 6 6 6 7 8 8 9 9 9 9 8 7 7 5 7 7 9 9 9 6 8 9 10 11 11 11 11 11 11 9 9 6 7 8 7 7 7 6 4 7 6 5 4 4
3 2 3 4 6 7 6 7 7 8 8 9 8 7 6 5 6 6 8 8 9 9 7 10 9 11 11 11 11 10 11 11 9 8 8 7 7 6 6 7 6 5 6 5 5 4 4
2 2 2 4 5 7 6 6 7 8 8 8 7 5 4 3 5 7 8 8 9 6 6 8 10 9 9 10 10 10 10 10 9 7 6 7 7 6 7 7 6 6 5 5 5 3 4
3 3 4 6 6 6 6 5 6 6 7 9 5 3 6 3 3 6 7 7 6 5 10 8 8 9 9 9 9 9 8 7 6 6 5 5 6 7 7 5 5 4 3 3 5 5 6
2 4 8 8 9 8 7 6 5 5 6 7 4 2 3 2 5 5 6 4 5 7 8 10 9 8 9 9 8 8 6 5 6 5 3 4 4 6 6 6 5 4 4 1 -0 4 5
2 7 8 8 10 9 7 5 5 4 3 4 1 -0 2 3 4 5 5 3 7 8 9 9 9 8 8 8 7 7 6 4 6 5 3 3 4 6 6 6 4 3 3 5 -0 3 4
4 9 8 7 7 6 5 5 4 2 3 3 2 -2 -0 1 2 3 2 6 7 9 9 9 8 8 6 7 6 6 5 6 6 6 4 4 2 5 6 6 6 5 5 2 2 2 4
5 8 7 7 6 6 5 3 3 1 3 2 0 -1 -1 1 2 3 2 3 7 8 9 8 8 7 7 6 6 5 4 6 7 5 5 3 3 5 4 1 3 3 1 2 3 3 4
1 6 7 7 6 5 3 3 1 2 1 -1 -2 0 0 2 3 1 1 5 8 7 8 7 7 6 6 6 6 5 4 6 7 6 5 3 1 2 3 4 4 4 4 3 1 2 4
1 -0 2 3 3 2 1 1 1 2 1 -1 -0 -0 0 1 1 2 3 6 7 7 7 7 7 7 6 6 5 5 5 5 6 5 4 3 1 0 3 4 4 4 4 5 4 3 4
1 1 -0 -1 -0 -0 -0 -0 1 -1 -1 -0 1 0 -0 0 1 4 4 5 5 7 7 7 6 6 5 5 5 5 4 4 5 5 5 4 1 -2 -2 0 1 1 3 3 3 2 3
-0 -1 -1 -0 -0 -1 -2 -2 -2 -1 -0 1 1 -0 0 -0 -1 2 4 5 6 5 6 7 6 6 5 4 4 4 4 3 4 5 3 2 0 -0 1 2 2 3 2 2 -0 2 3
-1 -1 -1 -1 -1 -2 -2 -3 -2 -0 0 2 2 2 1 3 2 3 4 4 5 4 5 5 5 5 5 4 5 3 3 3 4 2 2 1 1 2 2 3 2 3 3 2 2 3 3
-1 -1 -1 -1 -2 -2 -3 -3 -1 -0 1 1 2 4 6 1 1 2 2 5 5 5 5 6 5 3 3 3 5 5 5 4 3 2 1 1 1 1 2 4 3 1 2 1 -1 2 1
-1 -1 -1 -1 -2 -2 -2 -1 -1 0 1 3 4 4 4 0 2 3 4 5 5 5 3 4 5 4 4 5 4 4 3 2 1 1 3 1 1 1 2 3 0 2 3 3 1 1 0
-1 -1 -1 -2 -2 -2 -1 -1 -0 1 2 3 4 6 5 -1 2 3 4 3 4 4 3 4 4 5 5 4 2 2 2 3 3 1 -1 1 1 -0 1 2 4 1 2 1 0 -0 -1
-1 -1 -1 -1 -1 -1 -1 -1 1 2 2 4 4 6 5 2 0 2 2 4 3 2 2 2 4 4 5 1 0 2 1 3 3 3 2 1 1 2 1 2 -0 1 2 0 0 0 -1
-1 -1 -1 -1 -1 -1 -0 0 1 2 2 4 4 4 5 0 -0 2 1 2 3 2 0 2 3 3 3 -2 1 1 1 3 2 3 2 1 1 1 1 1 1 0 -0 0 2 -2 -1
-1 -1 -1 -1 -1 -1 -0 -0 1 2 3 4 3 4 5 1 -0 1 2 3 3 3 1 1 1 1 -1 -1 0 -1 -0 1 1 2 2 1 -0 -2 -0 0 0 -1 0 2 -2 -1 -2
-1 -1 -2 -1 -1 -1 -0 -0 0 1 2 3 3 4 5 3 1 1 2 3 4 4 3 1 1 0 1 -1 -2 -1 -0 -2 0 -0 -0 -1 -1 -1 -0 -1 -1 -1 -1 -1 -2 -2 -3

GFSGBSN_850_temp_135.txt.gz
Temp
10 10 10 11 10 10 11 11 11 11 12 12 12 12 12 12 12 12 12 12 12 12 12 13 13 14 14 14 14 14 13 13 13 13 13 13 14 13 13 12 12 13 12 11 11 12 11
9 10 10 10 11 10 10 11 11 11 11 11 12 12 12 12 12 12 12 12 12 12 12 12 13 13 14 13 13 13 13 13 13 13 13 13 13 13 11 11 12 11 11 11 11 11 10
9 9 10 9 10 10 10 10 10 11 11 11 11 11 12 11 12 12 11 11 12 12 12 12 12 12 13 13 13 13 13 13 13 13 13 13 13 13 12 12 11 10 12 11 11 10 11
9 9 9 9 9 10 10 10 10 10 10 10 10 11 11 11 12 12 11 11 11 12 12 12 12 11 13 12 12 12 12 12 13 13 13 13 13 12 11 11 9 10 9 11 11 10 11
8 8 9 8 8 9 9 9 10 10 10 10 10 10 11 11 11 11 11 11 11 11 11 11 11 11 12 12 12 12 12 13 12 12 13 12 12 11 10 10 10 9 11 9 10 10 10
7 7 7 8 8 8 8 9 9 9 10 10 10 10 10 10 11 10 10 11 10 10 10 11 10 10 11 12 12 12 12 12 12 12 12 12 11 10 9 11 12 9 9 8 9 10 10
5 6 7 7 7 8 7 8 9 9 9 9 9 10 10 10 10 10 10 10 10 10 9 12 12 11 11 11 12 12 12 12 12 11 11 8 11 9 9 9 9 8 7 8 9 9 8
5 6 6 6 7 7 7 7 7 8 9 9 9 9 9 10 9 9 9 10 11 11 10 11 10 10 11 11 11 11 12 11 10 9 9 9 9 9 9 8 8 8 7 7 8 8 8
4 5 5 6 6 6 6 6 7 7 8 8 8 9 9 8 7 9 8 9 10 9 9 10 11 10 11 11 11 11 11 11 9 9 8 9 9 8 8 7 8 7 7 7 7 8 8
2 3 3 4 4 4 6 6 6 7 7 8 8 8 8 4 4 8 8 9 9 10 8 9 9 9 10 11 10 11 11 11 9 8 8 8 8 8 8 7 7 7 7 7 7 7 7
2 2 2 3 3 2 3 6 6 6 6 7 7 7 8 6 4 6 8 8 9 10 8 9 9 10 10 11 10 10 11 11 9 8 9 8 7 7 7 8 7 7 7 6 6 6 5
2 2 2 2 2 2 3 3 5 6 5 6 7 6 7 2 4 6 7 9 9 8 7 8 9 9 10 10 10 9 10 10 8 8 7 7 7 7 8 8 7 7 6 6 6 6 7
2 2 2 2 2 3 3 3 3 5 5 4 6 6 6 5 4 4 6 7 7 7 9 8 9 9 9 9 9 9 9 8 8 7 7 7 7 7 7 7 7 6 6 8 8 8 9
2 2 2 1 1 2 2 2 4 4 4 5 5 6 6 4 3 3 4 2 7 8 9 9 9 8 9 9 8 8 7 7 6 6 6 7 6 7 6 7 6 6 5 6 6 7 7
1 2 2 1 1 3 4 4 4 4 3 4 4 0 3 2 2 1 2 3 7 8 9 8 9 9 8 8 8 8 7 6 7 6 6 5 6 6 6 6 6 5 6 6 4 5 5
1 2 2 1 3 5 7 7 5 2 4 4 1 -0 0 1 0 -0 1 5 7 9 9 10 8 8 7 7 7 7 7 6 6 6 5 5 5 6 6 6 6 6 6 5 5 4 5
1 1 1 1 5 7 8 8 5 4 4 4 1 -0 -1 -0 -0 0 1 6 6 8 10 9 8 7 7 7 7 6 5 6 6 5 5 4 5 5 5 5 6 5 5 5 5 4 5
-0 0 1 1 7 6 7 6 6 4 2 2 0 1 -1 -0 -0 0 1 5 6 7 7 7 7 7 7 6 6 6 5 6 6 6 6 4 4 4 5 5 5 5 5 5 4 4 5
-1 0 -0 3 8 6 6 6 4 4 3 2 0 -2 -1 -1 1 1 3 5 6 6 7 7 7 7 7 6 6 6 5 4 6 5 5 4 4 4 5 5 5 5 5 5 4 4 4
-1 0 -0 3 7 6 6 5 4 1 2 3 1 -0 -1 -1 -0 2 4 5 5 6 6 6 6 6 6 5 6 5 4 4 5 5 5 5 3 3 5 4 4 3 4 4 3 3 5
-1 -1 1 -1 2 5 4 1 -0 1 2 4 0 1 1 1 0 3 4 5 5 5 6 6 6 7 6 5 5 4 4 3 4 4 3 4 4 2 4 4 4 4 4 3 1 3 3
-1 -1 -0 1 -1 -1 -1 -1 -1 0 1 1 -1 -0 0 2 1 4 3 4 6 4 6 5 6 6 5 5 6 4 4 4 4 3 3 2 3 2 3 4 3 3 3 3 3 3 4
-1 -2 -1 -1 -0 0 -1 -1 -1 -1 -0 -1 -0 0 1 1 1 1 2 5 5 5 5 6 5 4 4 4 4 4 5 4 4 4 3 3 3 3 4 4 4 3 3 3 1 2 2
-1 -1 -2 -2 -2 -2 -1 -0 -0 -0 -0 -0 -0 1 2 1 1 3 5 5 5 5 4 4 5 4 3 5 4 4 3 2 2 2 3 2 3 3 3 4 3 4 4 3 2 1 1
-1 -1 -2 -2 -2 -2 -2 -1 -1 -0 -0 2 3 4 3 2 3 4 5 3 3 4 3 3 4 5 4 5 3 3 3 3 2 2 2 2 3 2 3 4 4 2 3 3 2 2 -0
-1 -2 -2 -2 -2 -2 -1 -1 -0 -0 1 3 4 4 4 3 0 3 4 4 3 3 2 1 2 4 5 2 3 3 3 4 3 2 1 2 2 3 2 3 3 3 2 0 1 2 -0
-1 -2 -2 -2 -2 -2 -2 -1 -0 1 2 3 5 5 5 -0 -1 3 2 3 4 2 2 1 3 3 4 1 2 3 3 4 3 3 2 1 2 2 3 3 4 2 1 0 3 2 -1
-1 -1 -2 -2 -1 -2 -1 -1 -0 1 3 5 4 5 6 0 -1 2 3 3 3 3 3 2 3 2 1 1 2 1 2 3 3 3 3 3 2 2 2 2 2 0 1 2 1 -1 -1
-1 -2 -2 -1 -1 -1 -0 1 2 3 3 5 4 4 4 3 -1 1 2 3 5 5 3 1 2 1 2 1 1 1 1 1 2 2 1 2 2 3 3 3 1 -0 0 -1 -1 -2 -2